BMCB-14 Weather Reports


Display with metric or nautical units.
time (UTC)temp
F
wind
direction
speed
MPH
gust
MPH
rain 1hr
in
rain 24hr
in
rain mn
in
humidity
%
barometer
mb
20260507075048 50 0 0.0 0.0 0.00 0.09 0.00 86 1017.1
20260507074046 49 0 0.0 0.0 0.00 0.09 0.00 87 1017.1
20260507073049 49 0 0.0 0.0 0.00 0.10 0.00 88 1017.0
20260507072045 49 0 0.0 0.0 0.00 0.10 0.00 88 1017.0
20260507071048 49 0 0.0 0.0 0.00 0.10 0.00 89 1016.9
20260507070046 48 0 0.0 0.0 0.00 0.11 0.00 91 1016.9
20260507065043 48 0 0.0 0.0 0.00 0.11 0.00 92 1017.0
20260507064045 48 0 0.0 0.0 0.00 0.11 0.00 93 1016.9
20260507062046 46 0 0.0 0.0 0.00 0.13 0.00 95 1016.8
20260507061048 46 0 0.0 0.0 0.00 0.13 0.00 97 1016.7
20260507060047 45 0 0.0 0.0 0.00 0.13 0.00 99 1016.6
20260507055049 45 0 0.0 0.0 0.00 0.14 0.00 10 1016.6
20260507051045 44 0 0.0 0.0 0.00 0.18 0.00 10 1016.2
20260507050047 44 0 0.0 0.0 0.00 0.19 0.00 10 1016.1
20260507045046 44 0 0.0 0.0 0.00 0.20 0.00 10 1016.0
20260507044048 44 0 0.0 0.0 0.00 0.20 0.00 10 1015.9
20260507043046 44 0 0.0 0.0 0.00 0.20 0.00 10 1015.9
20260507042048 44 0 0.0 0.0 0.00 0.20 0.00 10 1015.7
20260507041046 44 0 0.0 0.0 0.00 0.21 0.00 10 1015.6
20260507040045 44 0 0.0 0.0 0.00 0.23 0.00 10 1015.6
20260507035044 44 0 0.0 0.0 0.00 0.24 0.00 10 1015.5
20260507034047 44 0 0.0 0.0 0.00 0.24 0.00 10 1015.5
20260507033044 44 0 0.0 0.0 0.00 0.25 0.00 10 1015.4
20260507032047 44 0 0.0 0.0 0.00 0.26 0.00 10 1015.4
20260507031045 44 0 0.0 0.0 0.00 0.27 0.00 10 1015.3
20260507030046 44 0 0.0 0.0 0.00 0.27 0.00 99 1015.3
20260507025045 44 0 0.0 0.0 0.00 0.28 0.00 99 1015.3
20260507024044 44 0 0.0 0.0 0.00 0.28 0.00 98 1015.2
20260507022044 44 0 0.0 0.0 0.00 0.28 0.00 98 1015.1
20260507021046 44 0 0.0 0.0 0.00 0.29 0.00 98 1015.0
20260507020045 45 0 0.0 0.0 0.00 0.30 0.00 98 1014.9
20260507015043 45 0 0.0 0.0 0.00 0.31 0.00 98 1014.9
20260507014044 45 0 0.0 0.0 0.00 0.31 0.00 98 1014.9
20260507013043 45 0 0.0 0.0 0.00 0.32 0.00 98 1014.9
20260507012043 45 0 0.0 0.0 0.00 0.32 0.00 99 1014.9
20260507005045 45 0 0.0 0.0 0.00 0.33 0.00 99 1014.7
20260507004046 45 0 0.0 0.0 0.00 0.33 0.00 99 1014.7
20260507003044 45 0 0.0 0.0 0.00 0.34 0.00 99 1014.7
20260507002043 45 0 0.0 0.0 0.00 0.34 0.00 99 1014.6
20260507001045 45 0 0.0 0.0 0.00 0.34 0.00 99 1014.6
20260507000043 45 0 0.0 0.0 0.00 0.34 0.00 99 1014.5
20260506235047 45 0 0.0 0.0 0.00 0.34 0.00 99 1014.5
20260506234047 45 0 0.0 0.0 0.00 0.34 0.00 99 1014.5
20260506233046 45 0 0.0 0.0 0.00 0.35 0.00 99 1014.5
20260506232047 45 0 0.0 0.0 0.00 0.35 0.00 99 1014.4
20260506231047 45 0 0.0 0.0 0.00 0.35 0.00 99 1014.3
20260506230049 45 0 0.0 0.0 0.00 0.36 0.00 99 1014.3
20260506225048 45 0 0.0 0.0 0.00 0.37 0.00 99 1014.2
20260506224049 45 0 0.0 0.0 0.00 0.38 0.00 99 1014.2
20260506223048 45 0 0.0 0.0 0.00 0.39 0.00 10 1014.1
20260506222048 45 0 0.0 0.0 0.00 0.39 0.00 10 1014.0
20260506221048 45 0 0.0 0.0 0.00 0.40 0.00 10 1013.9
20260506220056 45 0 0.0 0.0 0.00 0.42 0.00 10 1013.8
20260506215055 45 0 0.0 0.0 0.00 0.43 0.42 10 1013.8
20260506214048 45 0 0.0 0.0 0.00 0.44 0.42 10 1013.7
20260506212051 44 0 0.0 0.0 0.00 0.46 0.42 10 1013.6
20260506211050 44 0 0.0 0.0 0.00 0.47 0.42 10 1013.5
20260506210050 44 0 0.0 0.0 0.00 0.48 0.42 10 1013.4
20260506205049 43 0 0.0 0.0 0.00 0.50 0.42 10 1013.3
20260506204050 43 0 0.0 0.0 0.00 0.50 0.42 10 1013.2
20260506203051 43 0 0.0 0.0 0.00 0.51 0.42 10 1013.1
20260506202050 43 0 0.0 0.0 0.00 0.52 0.42 10 1013.1
20260506201053 43 0 0.0 0.0 0.00 0.53 0.42 99 1013.0
20260506200049 43 0 0.0 0.0 0.00 0.54 0.42 99 1013.0
20260506195048 44 0 0.0 0.0 0.00 0.54 0.42 98 1012.9
20260506194049 44 0 0.0 0.0 0.00 0.55 0.42 98 1012.8
20260506193048 44 0 0.0 0.0 0.00 0.56 0.42 98 1012.7
20260506192049 45 0 0.0 0.0 0.00 0.57 0.42 98 1012.6
20260506191048 45 0 0.0 0.0 0.00 0.58 0.42 98 1012.6
20260506190052 46 0 0.0 0.0 0.00 0.59 0.42 97 1012.5
20260506185049 46 0 0.0 0.0 0.00 0.60 0.42 96 1012.3
20260506184050 47 0 0.0 0.0 0.00 0.61 0.42 95 1012.2
20260506183050 48 0 0.0 0.0 0.00 0.62 0.42 94 1012.1
20260506181046 49 0 0.0 0.0 0.00 0.63 0.42 91 1011.8
20260506180051 50 0 0.0 0.0 0.00 0.64 0.42 89 1011.7
20260506175049 51 0 0.0 0.0 0.00 0.65 0.42 87 1011.5
20260506174050 50 0 0.0 0.0 0.00 0.65 0.42 88 1011.4
20260506173048 50 0 0.0 0.0 0.00 0.66 0.42 89 1011.2
20260506172050 50 0 0.0 0.0 0.00 0.66 0.42 91 1011.2
20260506171048 50 0 0.0 0.0 0.00 0.66 0.42 92 1011.1
20260506170045 50 0 0.0 0.0 0.00 0.67 0.42 92 1011.1
20260506165046 50 0 0.0 0.0 0.00 0.67 0.42 92 1011.1
20260506164048 50 0 0.0 0.0 0.00 0.67 0.42 93 1011.0
20260506163047 50 0 0.0 0.0 0.00 0.68 0.42 94 1011.0
20260506161046 50 0 0.0 0.0 0.00 0.68 0.42 95 1011.0
20260506160046 50 0 0.0 0.0 0.00 0.68 0.42 95 1011.1
20260506154051 50 0 0.0 0.0 0.00 0.68 0.42 94 1010.9
20260506153048 50 0 0.0 0.0 0.00 0.68 0.42 93 1010.9
20260506152048 50 0 0.0 0.0 0.00 0.68 0.42 92 1010.8
20260506151049 50 0 0.0 0.0 0.00 0.68 0.42 91 1010.7
20260506150047 51 0 0.0 0.0 0.00 0.68 0.42 90 1010.6
20260506145048 51 0 0.0 0.0 0.00 0.68 0.42 89 1010.6
20260506144047 51 0 0.0 0.0 0.00 0.68 0.42 91 1010.6
20260506143048 51 0 0.0 0.0 0.00 0.68 0.42 90 1010.6
20260506142047 52 0 0.0 0.0 0.00 0.68 0.42 92 1010.6
20260506141048 51 0 0.0 0.0 0.00 0.68 0.42 92 1010.6
20260506140054 51 0 0.0 0.0 0.01 0.68 0.42 94 1010.7
20260506134048 50 0 0.0 0.0 0.01 0.69 0.42 94 1010.7
20260506131045 50 0 0.0 0.0 0.01 0.69 0.42 95 1010.7
20260506130046 50 0 0.0 0.0 0.02 0.69 0.42 94 1010.6
20260506125047 50 0 0.0 0.0 0.01 0.68 0.41 95 1010.6
20260506124047 49 0 0.0 0.0 0.01 0.68 0.41 95 1010.5
20260506123047 49 0 0.0 0.0 0.01 0.68 0.41 95 1010.5
20260506122049 49 0 0.0 0.0 0.01 0.68 0.41 97 1010.4
20260506120045 49 0 0.0 0.0 0.02 0.68 0.41 97 1010.3
20260506115049 49 0 0.0 0.0 0.01 0.67 0.40 98 1010.2
20260506114049 49 0 0.0 0.0 0.02 0.67 0.40 97 1010.2
20260506112046 50 0 0.0 0.0 0.02 0.67 0.40 98 1010.0
20260506111050 50 0 0.0 0.0 0.02 0.67 0.40 98 1010.1
20260506105046 49 0 0.0 0.0 0.02 0.66 0.39 10 1010.1
20260506104046 49 0 0.0 0.0 0.02 0.66 0.39 10 1010.1
20260506103049 49 0 0.0 0.0 0.02 0.65 0.39 10 1010.0
20260506102047 48 0 0.0 0.0 0.02 0.65 0.39 10 1010.1
20260506101045 48 0 0.0 0.0 0.02 0.65 0.38 10 1010.0
20260506100044 48 0 0.0 0.0 0.02 0.65 0.38 10 1009.9
20260506095047 47 0 0.0 0.0 0.02 0.64 0.37 10 1009.8
20260506094047 47 0 0.0 0.0 0.02 0.64 0.37 10 1009.8
20260506093046 47 0 0.0 0.0 0.03 0.64 0.37 10 1009.7
20260506092045 47 0 0.0 0.0 0.02 0.63 0.36 10 1009.7
20260506091047 47 0 0.0 0.0 0.03 0.63 0.36 10 1009.6
20260506090048 47 0 0.0 0.0 0.02 0.62 0.35 10 1009.6
20260506085048 47 0 0.0 0.0 0.03 0.62 0.35 10 1009.5
20260506084045 47 0 0.0 0.0 0.02 0.61 0.35 10 1009.4
20260506083044 46 0 0.0 0.0 0.03 0.61 0.35 10 1009.3
20260506082046 46 0 0.0 0.0 0.02 0.61 0.34 10 1009.3
20260506081046 46 0 0.0 0.0 0.02 0.61 0.34 10 1009.3